Simultaneous Nadir Overpasses (SNOs) Predictions

Prediction of SNOs between GOES-17 and TERRA Satellite Orbit:

Table of predicted SNOs for the next 14.0 days since TLE Epoch: 2/17/2024
Index Date Time (GOES-17) GOES-17 Lat,Lon TERRA Lat,Lon Distance(km) Time Diff (sec)
1 02/18/2024 16:47:18 0.00,-104.68 -0.36,-103.06 185.20 80
2 02/19/2024 05:07:28 -0.00,-104.68 -0.67,-107.96 372.03 80
3 02/21/2024 04:47:47 -0.00,-104.68 0.14,-103.85 93.60 80
4 02/21/2024 17:07:48 0.00,-104.67 0.87,-108.72 459.77 80
5 02/23/2024 16:50:48 -0.00,-104.68 -0.03,-104.62 6.94 80
6 02/25/2024 16:36:27 -0.00,-104.68 -0.90,-100.52 473.52 80
7 02/26/2024 04:56:36 0.00,-104.68 -0.15,-105.41 82.78 80
8 02/28/2024 04:36:54 0.01,-104.69 0.69,-101.30 384.38 80
9 02/28/2024 16:56:55 -0.00,-104.68 0.32,-106.17 169.03 80
10 03/01/2024 16:42:33 -0.00,-104.68 -0.55,-102.06 298.27 80
